Index of /20260411/WXO-DD/model_gdps/15km/12/228
Name Last modified Size Description
Parent Directory -
20260411T12Z_MSC_GDPS_AbsoluteVorticity_IsbL-0200_LatLon0.15_PT228H.grib2 2026-04-11 17:01 1.5M
20260411T12Z_MSC_GDPS_AbsoluteVorticity_IsbL-0250_LatLon0.15_PT228H.grib2 2026-04-11 17:01 1.6M
20260411T12Z_MSC_GDPS_AbsoluteVorticity_IsbL-0500_LatLon0.15_PT228H.grib2 2026-04-11 17:01 1.4M
20260411T12Z_MSC_GDPS_AbsoluteVorticity_IsbL-0700_LatLon0.15_PT228H.grib2 2026-04-11 17:01 1.3M
20260411T12Z_MSC_GDPS_AbsoluteVorticity_IsbL-0850_LatLon0.15_PT228H.grib2 2026-04-11 17:01 1.6M
20260411T12Z_MSC_GDPS_AirTemp-Max_AGL-2m_LatLon0.15_PT228H.grib2 2026-04-11 17:01 748K
20260411T12Z_MSC_GDPS_AirTemp-Min_AGL-2m_LatLon0.15_PT228H.grib2 2026-04-11 17:01 796K
20260411T12Z_MSC_GDPS_AirTemp_AGL-120m_LatLon0.15_PT228H.grib2 2026-04-11 17:01 908K
20260411T12Z_MSC_GDPS_AirTemp_AGL-2m_LatLon0.15_PT228H.grib2 2026-04-11 17:01 1.0M
20260411T12Z_MSC_GDPS_AirTemp_AGL-40m_LatLon0.15_PT228H.grib2 2026-04-11 17:01 928K
20260411T12Z_MSC_GDPS_AirTemp_AGL-80m_LatLon0.15_PT228H.grib2 2026-04-11 17:01 918K
20260411T12Z_MSC_GDPS_AirTemp_IsbL-0001_LatLon0.15_PT228H.grib2 2026-04-11 17:01 704K
20260411T12Z_MSC_GDPS_AirTemp_IsbL-0005_LatLon0.15_PT228H.grib2 2026-04-11 17:01 743K
20260411T12Z_MSC_GDPS_AirTemp_IsbL-0010_LatLon0.15_PT228H.grib2 2026-04-11 17:01 754K
20260411T12Z_MSC_GDPS_AirTemp_IsbL-0020_LatLon0.15_PT228H.grib2 2026-04-11 17:01 700K
20260411T12Z_MSC_GDPS_AirTemp_IsbL-0030_LatLon0.15_PT228H.grib2 2026-04-11 17:01 754K
20260411T12Z_MSC_GDPS_AirTemp_IsbL-0050_LatLon0.15_PT228H.grib2 2026-04-11 17:01 812K
20260411T12Z_MSC_GDPS_AirTemp_IsbL-0100_LatLon0.15_PT228H.grib2 2026-04-11 17:01 955K
20260411T12Z_MSC_GDPS_AirTemp_IsbL-0150_LatLon0.15_PT228H.grib2 2026-04-11 17:01 971K
20260411T12Z_MSC_GDPS_AirTemp_IsbL-0175_LatLon0.15_PT228H.grib2 2026-04-11 17:01 959K
20260411T12Z_MSC_GDPS_AirTemp_IsbL-0200_LatLon0.15_PT228H.grib2 2026-04-11 17:01 967K
20260411T12Z_MSC_GDPS_AirTemp_IsbL-0225_LatLon0.15_PT228H.grib2 2026-04-11 17:01 968K
20260411T12Z_MSC_GDPS_AirTemp_IsbL-0250_LatLon0.15_PT228H.grib2 2026-04-11 17:01 1.0M
20260411T12Z_MSC_GDPS_AirTemp_IsbL-0275_LatLon0.15_PT228H.grib2 2026-04-11 17:01 1.0M
20260411T12Z_MSC_GDPS_AirTemp_IsbL-0300_LatLon0.15_PT228H.grib2 2026-04-11 17:01 1.0M
20260411T12Z_MSC_GDPS_AirTemp_IsbL-0350_LatLon0.15_PT228H.grib2 2026-04-11 17:01 926K
20260411T12Z_MSC_GDPS_AirTemp_IsbL-0400_LatLon0.15_PT228H.grib2 2026-04-11 17:01 937K
20260411T12Z_MSC_GDPS_AirTemp_IsbL-0450_LatLon0.15_PT228H.grib2 2026-04-11 17:01 961K
20260411T12Z_MSC_GDPS_AirTemp_IsbL-0500_LatLon0.15_PT228H.grib2 2026-04-11 17:01 1.0M
20260411T12Z_MSC_GDPS_AirTemp_IsbL-0550_LatLon0.15_PT228H.grib2 2026-04-11 17:01 1.0M
20260411T12Z_MSC_GDPS_AirTemp_IsbL-0600_LatLon0.15_PT228H.grib2 2026-04-11 17:01 894K
20260411T12Z_MSC_GDPS_AirTemp_IsbL-0650_LatLon0.15_PT228H.grib2 2026-04-11 17:01 918K
20260411T12Z_MSC_GDPS_AirTemp_IsbL-0700_LatLon0.15_PT228H.grib2 2026-04-11 17:01 949K
20260411T12Z_MSC_GDPS_AirTemp_IsbL-0750_LatLon0.15_PT228H.grib2 2026-04-11 17:01 1.0M
20260411T12Z_MSC_GDPS_AirTemp_IsbL-0800_LatLon0.15_PT228H.grib2 2026-04-11 17:01 1.0M
20260411T12Z_MSC_GDPS_AirTemp_IsbL-0850_LatLon0.15_PT228H.grib2 2026-04-11 17:01 1.1M
20260411T12Z_MSC_GDPS_AirTemp_IsbL-0875_LatLon0.15_PT228H.grib2 2026-04-11 17:01 1.1M
20260411T12Z_MSC_GDPS_AirTemp_IsbL-0900_LatLon0.15_PT228H.grib2 2026-04-11 17:01 1.1M
20260411T12Z_MSC_GDPS_AirTemp_IsbL-0925_LatLon0.15_PT228H.grib2 2026-04-11 17:01 1.1M
20260411T12Z_MSC_GDPS_AirTemp_IsbL-0950_LatLon0.15_PT228H.grib2 2026-04-11 17:01 1.1M
20260411T12Z_MSC_GDPS_AirTemp_IsbL-0970_LatLon0.15_PT228H.grib2 2026-04-11 17:01 1.1M
20260411T12Z_MSC_GDPS_AirTemp_IsbL-0985_LatLon0.15_PT228H.grib2 2026-04-11 17:01 1.1M
20260411T12Z_MSC_GDPS_AirTemp_IsbL-1000_LatLon0.15_PT228H.grib2 2026-04-11 17:01 1.1M
20260411T12Z_MSC_GDPS_AirTemp_IsbL-1015_LatLon0.15_PT228H.grib2 2026-04-11 17:01 1.1M
20260411T12Z_MSC_GDPS_Albedo_Sfc_LatLon0.15_PT228H.grib2 2026-04-11 17:01 248K
20260411T12Z_MSC_GDPS_CAPE_Sfc_LatLon0.15_PT228H.grib2 2026-04-11 17:01 3.8M
20260411T12Z_MSC_GDPS_CIN_Sfc_LatLon0.15_PT228H.grib2 2026-04-11 17:01 2.8M
20260411T12Z_MSC_GDPS_CloudWater_EAtm_LatLon0.15_PT228H.grib2 2026-04-11 17:01 529K
20260411T12Z_MSC_GDPS_ConvectivePrecip-Accum_Sfc_LatLon0.15_PT228H.grib2 2026-04-11 17:01 3.7M
20260411T12Z_MSC_GDPS_DewPointDepression_AGL-2m_LatLon0.15_PT228H.grib2 2026-04-11 17:01 744K
20260411T12Z_MSC_GDPS_DewPointDepression_IsbL-0010_LatLon0.15_PT228H.grib2 2026-04-11 17:01 2.6K
20260411T12Z_MSC_GDPS_DewPointDepression_IsbL-0020_LatLon0.15_PT228H.grib2 2026-04-11 17:01 57K
20260411T12Z_MSC_GDPS_DewPointDepression_IsbL-0030_LatLon0.15_PT228H.grib2 2026-04-11 17:01 71K
20260411T12Z_MSC_GDPS_DewPointDepression_IsbL-0050_LatLon0.15_PT228H.grib2 2026-04-11 17:01 360K
20260411T12Z_MSC_GDPS_DewPointDepression_IsbL-0100_LatLon0.15_PT228H.grib2 2026-04-11 17:01 374K
20260411T12Z_MSC_GDPS_DewPointDepression_IsbL-0150_LatLon0.15_PT228H.grib2 2026-04-11 17:01 454K
20260411T12Z_MSC_GDPS_DewPointDepression_IsbL-0175_LatLon0.15_PT228H.grib2 2026-04-11 17:01 540K
20260411T12Z_MSC_GDPS_DewPointDepression_IsbL-0200_LatLon0.15_PT228H.grib2 2026-04-11 17:01 651K
20260411T12Z_MSC_GDPS_DewPointDepression_IsbL-0225_LatLon0.15_PT228H.grib2 2026-04-11 17:01 781K
20260411T12Z_MSC_GDPS_DewPointDepression_IsbL-0250_LatLon0.15_PT228H.grib2 2026-04-11 17:01 869K
20260411T12Z_MSC_GDPS_DewPointDepression_IsbL-0275_LatLon0.15_PT228H.grib2 2026-04-11 17:01 882K
20260411T12Z_MSC_GDPS_DewPointDepression_IsbL-0300_LatLon0.15_PT228H.grib2 2026-04-11 17:01 926K
20260411T12Z_MSC_GDPS_DewPointDepression_IsbL-0350_LatLon0.15_PT228H.grib2 2026-04-11 17:01 960K
20260411T12Z_MSC_GDPS_DewPointDepression_IsbL-0400_LatLon0.15_PT228H.grib2 2026-04-11 17:01 1.0M
20260411T12Z_MSC_GDPS_DewPointDepression_IsbL-0450_LatLon0.15_PT228H.grib2 2026-04-11 17:01 1.0M
20260411T12Z_MSC_GDPS_DewPointDepression_IsbL-0500_LatLon0.15_PT228H.grib2 2026-04-11 17:01 1.0M
20260411T12Z_MSC_GDPS_DewPointDepression_IsbL-0550_LatLon0.15_PT228H.grib2 2026-04-11 17:01 1.0M
20260411T12Z_MSC_GDPS_DewPointDepression_IsbL-0600_LatLon0.15_PT228H.grib2 2026-04-11 17:01 1.1M
20260411T12Z_MSC_GDPS_DewPointDepression_IsbL-0650_LatLon0.15_PT228H.grib2 2026-04-11 17:01 1.1M
20260411T12Z_MSC_GDPS_DewPointDepression_IsbL-0700_LatLon0.15_PT228H.grib2 2026-04-11 17:01 1.1M
20260411T12Z_MSC_GDPS_DewPointDepression_IsbL-0750_LatLon0.15_PT228H.grib2 2026-04-11 17:01 1.1M
20260411T12Z_MSC_GDPS_DewPointDepression_IsbL-0800_LatLon0.15_PT228H.grib2 2026-04-11 17:01 1.2M
20260411T12Z_MSC_GDPS_DewPointDepression_IsbL-0850_LatLon0.15_PT228H.grib2 2026-04-11 17:01 1.1M
20260411T12Z_MSC_GDPS_DewPointDepression_IsbL-0875_LatLon0.15_PT228H.grib2 2026-04-11 17:01 1.1M
20260411T12Z_MSC_GDPS_DewPointDepression_IsbL-0900_LatLon0.15_PT228H.grib2 2026-04-11 17:01 1.1M
20260411T12Z_MSC_GDPS_DewPointDepression_IsbL-0925_LatLon0.15_PT228H.grib2 2026-04-11 17:01 1.0M
20260411T12Z_MSC_GDPS_DewPointDepression_IsbL-0950_LatLon0.15_PT228H.grib2 2026-04-11 17:01 1.0M
20260411T12Z_MSC_GDPS_DewPointDepression_IsbL-0970_LatLon0.15_PT228H.grib2 2026-04-11 17:01 1.0M
20260411T12Z_MSC_GDPS_DewPointDepression_IsbL-0985_LatLon0.15_PT228H.grib2 2026-04-11 17:01 1.0M
20260411T12Z_MSC_GDPS_DewPointDepression_IsbL-1000_LatLon0.15_PT228H.grib2 2026-04-11 17:01 964K
20260411T12Z_MSC_GDPS_DewPointDepression_IsbL-1015_LatLon0.15_PT228H.grib2 2026-04-11 17:01 900K
20260411T12Z_MSC_GDPS_DewPoint_AGL-2m_LatLon0.15_PT228H.grib2 2026-04-11 17:01 602K
20260411T12Z_MSC_GDPS_DownwardLongwaveRadiationFlux-Accum_Sfc_LatLon0.15_PT228H.grib2 2026-04-11 17:01 732K
20260411T12Z_MSC_GDPS_DownwardShortwaveRadiationFlux-Accum_NTAtm_LatLon0.15_PT228H.grib2 2026-04-11 17:01 298K
20260411T12Z_MSC_GDPS_DownwardShortwaveRadiationFlux-Accum_Sfc_LatLon0.15_PT228H.grib2 2026-04-11 17:01 929K
20260411T12Z_MSC_GDPS_FreezingRain-Accum12h_Sfc_LatLon0.15_PT228H.grib2 2026-04-11 17:01 100K
20260411T12Z_MSC_GDPS_FreezingRain-Accum24h_Sfc_LatLon0.15_PT228H.grib2 2026-04-11 17:01 149K
20260411T12Z_MSC_GDPS_FreezingRain-Accum6h_Sfc_LatLon0.15_PT228H.grib2 2026-04-11 17:01 62K
20260411T12Z_MSC_GDPS_FreezingRain-Accum_Sfc_LatLon0.15_PT228H.grib2 2026-04-11 17:01 346K
20260411T12Z_MSC_GDPS_GeopotentialHeight_IsbL-0001_LatLon0.15_PT228H.grib2 2026-04-11 17:01 393K
20260411T12Z_MSC_GDPS_GeopotentialHeight_IsbL-0005_LatLon0.15_PT228H.grib2 2026-04-11 17:01 490K
20260411T12Z_MSC_GDPS_GeopotentialHeight_IsbL-0010_LatLon0.15_PT228H.grib2 2026-04-11 17:01 422K
20260411T12Z_MSC_GDPS_GeopotentialHeight_IsbL-0020_LatLon0.15_PT228H.grib2 2026-04-11 17:01 574K
20260411T12Z_MSC_GDPS_GeopotentialHeight_IsbL-0030_LatLon0.15_PT228H.grib2 2026-04-11 17:01 581K
20260411T12Z_MSC_GDPS_GeopotentialHeight_IsbL-0050_LatLon0.15_PT228H.grib2 2026-04-11 17:01 581K
20260411T12Z_MSC_GDPS_GeopotentialHeight_IsbL-0100_LatLon0.15_PT228H.grib2 2026-04-11 17:01 613K
20260411T12Z_MSC_GDPS_GeopotentialHeight_IsbL-0150_LatLon0.15_PT228H.grib2 2026-04-11 17:01 630K
20260411T12Z_MSC_GDPS_GeopotentialHeight_IsbL-0175_LatLon0.15_PT228H.grib2 2026-04-11 17:01 634K
20260411T12Z_MSC_GDPS_GeopotentialHeight_IsbL-0200_LatLon0.15_PT228H.grib2 2026-04-11 17:01 639K
20260411T12Z_MSC_GDPS_GeopotentialHeight_IsbL-0225_LatLon0.15_PT228H.grib2 2026-04-11 17:01 635K
20260411T12Z_MSC_GDPS_GeopotentialHeight_IsbL-0250_LatLon0.15_PT228H.grib2 2026-04-11 17:01 646K
20260411T12Z_MSC_GDPS_GeopotentialHeight_IsbL-0275_LatLon0.15_PT228H.grib2 2026-04-11 17:01 642K
20260411T12Z_MSC_GDPS_GeopotentialHeight_IsbL-0300_LatLon0.15_PT228H.grib2 2026-04-11 17:01 634K
20260411T12Z_MSC_GDPS_GeopotentialHeight_IsbL-0350_LatLon0.15_PT228H.grib2 2026-04-11 17:01 632K
20260411T12Z_MSC_GDPS_GeopotentialHeight_IsbL-0400_LatLon0.15_PT228H.grib2 2026-04-11 17:01 623K
20260411T12Z_MSC_GDPS_GeopotentialHeight_IsbL-0450_LatLon0.15_PT228H.grib2 2026-04-11 17:01 543K
20260411T12Z_MSC_GDPS_GeopotentialHeight_IsbL-0500_LatLon0.15_PT228H.grib2 2026-04-11 17:01 531K
20260411T12Z_MSC_GDPS_GeopotentialHeight_IsbL-0550_LatLon0.15_PT228H.grib2 2026-04-11 17:01 526K
20260411T12Z_MSC_GDPS_GeopotentialHeight_IsbL-0600_LatLon0.15_PT228H.grib2 2026-04-11 17:01 687K
20260411T12Z_MSC_GDPS_GeopotentialHeight_IsbL-0650_LatLon0.15_PT228H.grib2 2026-04-11 17:01 684K
20260411T12Z_MSC_GDPS_GeopotentialHeight_IsbL-0700_LatLon0.15_PT228H.grib2 2026-04-11 17:01 680K
20260411T12Z_MSC_GDPS_GeopotentialHeight_IsbL-0750_LatLon0.15_PT228H.grib2 2026-04-11 17:01 685K
20260411T12Z_MSC_GDPS_GeopotentialHeight_IsbL-0800_LatLon0.15_PT228H.grib2 2026-04-11 17:01 700K
20260411T12Z_MSC_GDPS_GeopotentialHeight_IsbL-0850_LatLon0.15_PT228H.grib2 2026-04-11 17:01 710K
20260411T12Z_MSC_GDPS_GeopotentialHeight_IsbL-0875_LatLon0.15_PT228H.grib2 2026-04-11 17:01 715K
20260411T12Z_MSC_GDPS_GeopotentialHeight_IsbL-0900_LatLon0.15_PT228H.grib2 2026-04-11 17:01 726K
20260411T12Z_MSC_GDPS_GeopotentialHeight_IsbL-0925_LatLon0.15_PT228H.grib2 2026-04-11 17:01 734K
20260411T12Z_MSC_GDPS_GeopotentialHeight_IsbL-0950_LatLon0.15_PT228H.grib2 2026-04-11 17:01 739K
20260411T12Z_MSC_GDPS_GeopotentialHeight_IsbL-0970_LatLon0.15_PT228H.grib2 2026-04-11 17:01 749K
20260411T12Z_MSC_GDPS_GeopotentialHeight_IsbL-0985_LatLon0.15_PT228H.grib2 2026-04-11 17:01 764K
20260411T12Z_MSC_GDPS_GeopotentialHeight_IsbL-1000_LatLon0.15_PT228H.grib2 2026-04-11 17:01 786K
20260411T12Z_MSC_GDPS_GeopotentialHeight_IsbL-1015_LatLon0.15_PT228H.grib2 2026-04-11 17:01 803K
20260411T12Z_MSC_GDPS_Humidex_Sfc_LatLon0.15_PT228H.grib2 2026-04-11 17:01 5.3M
20260411T12Z_MSC_GDPS_IcePellets-Accum12h_Sfc_LatLon0.15_PT228H.grib2 2026-04-11 17:01 27K
20260411T12Z_MSC_GDPS_IcePellets-Accum24h_Sfc_LatLon0.15_PT228H.grib2 2026-04-11 17:01 48K
20260411T12Z_MSC_GDPS_IcePellets-Accum6h_Sfc_LatLon0.15_PT228H.grib2 2026-04-11 17:01 19K
20260411T12Z_MSC_GDPS_IcePellets-Accum_Sfc_LatLon0.15_PT228H.grib2 2026-04-11 17:01 234K
20260411T12Z_MSC_GDPS_KIndex_Sfc_LatLon0.15_PT228H.grib2 2026-04-11 17:01 6.5M
20260411T12Z_MSC_GDPS_LatentHeatNetFlux_Sfc_LatLon0.15_PT228H.grib2 2026-04-11 17:01 639K
20260411T12Z_MSC_GDPS_LiftedIndex-MU-VT_IsbL-0500_LatLon0.15_PT228H.grib2 2026-04-11 17:01 5.3M
20260411T12Z_MSC_GDPS_NetLongwaveRadiationFlux-Accum_Sfc_LatLon0.15_PT228H.grib2 2026-04-11 17:01 924K
20260411T12Z_MSC_GDPS_NetShortwaveRadiationFlux-Accum_Sfc_LatLon0.15_PT228H.grib2 2026-04-11 17:01 914K
20260411T12Z_MSC_GDPS_O3MixingRatio_LatLon0.15_PT228H.grib2 2026-04-11 17:07 1.9M
20260411T12Z_MSC_GDPS_O3_EAtm_LatLon0.15_PT228H.grib2 2026-04-11 17:07 2.4M
20260411T12Z_MSC_GDPS_PlanetaryBoundaryLayerHeight_Sfc_LatLon0.15_PT228H.grib2 2026-04-11 17:01 2.4M
20260411T12Z_MSC_GDPS_Precip-Accum12h_Sfc_LatLon0.15_PT228H.grib2 2026-04-11 17:01 3.9M
20260411T12Z_MSC_GDPS_Precip-Accum24h_Sfc_LatLon0.15_PT228H.grib2 2026-04-11 17:01 4.5M
20260411T12Z_MSC_GDPS_Precip-Accum6h_Sfc_LatLon0.15_PT228H.grib2 2026-04-11 17:01 3.7M
20260411T12Z_MSC_GDPS_Precip-Accum_Sfc_LatLon0.15_PT228H.grib2 2026-04-11 17:01 5.1M
20260411T12Z_MSC_GDPS_PrecipRate_Sfc_LatLon0.15_PT228H.grib2 2026-04-11 17:01 2.8M
20260411T12Z_MSC_GDPS_PrecipType-Instant_Sfc_LatLon0.15_PT228H.grib2 2026-04-11 17:01 1.5M
20260411T12Z_MSC_GDPS_Pressure_MSL_LatLon0.15_PT228H.grib2 2026-04-11 17:01 720K
20260411T12Z_MSC_GDPS_Pressure_PVU-1.5_LatLon0.15_PT228H.grib2 2026-04-11 17:01 5.7M
20260411T12Z_MSC_GDPS_Pressure_PVU-1_LatLon0.15_PT228H.grib2 2026-04-11 17:01 5.9M
20260411T12Z_MSC_GDPS_Pressure_PVU-2_LatLon0.15_PT228H.grib2 2026-04-11 17:01 5.6M
20260411T12Z_MSC_GDPS_Pressure_Sfc_LatLon0.15_PT228H.grib2 2026-04-11 17:01 1.1M
20260411T12Z_MSC_GDPS_RadiativeTemp_Sfc_LatLon0.15_PT228H.grib2 2026-04-11 17:01 661K
20260411T12Z_MSC_GDPS_Rain-Accum12h_Sfc_LatLon0.15_PT228H.grib2 2026-04-11 17:01 2.7M
20260411T12Z_MSC_GDPS_Rain-Accum24h_Sfc_LatLon0.15_PT228H.grib2 2026-04-11 17:01 3.1M
20260411T12Z_MSC_GDPS_Rain-Accum6h_Sfc_LatLon0.15_PT228H.grib2 2026-04-11 17:01 2.4M
20260411T12Z_MSC_GDPS_Rain-Accum_Sfc_LatLon0.15_PT228H.grib2 2026-04-11 17:01 4.2M
20260411T12Z_MSC_GDPS_RelativeHumidity_AGL-2m_LatLon0.15_PT228H.grib2 2026-04-11 17:01 1.0M
20260411T12Z_MSC_GDPS_RelativeHumidity_IsbL-0010_LatLon0.15_PT228H.grib2 2026-04-11 17:01 213K
20260411T12Z_MSC_GDPS_RelativeHumidity_IsbL-0020_LatLon0.15_PT228H.grib2 2026-04-11 17:01 347K
20260411T12Z_MSC_GDPS_RelativeHumidity_IsbL-0030_LatLon0.15_PT228H.grib2 2026-04-11 17:01 412K
20260411T12Z_MSC_GDPS_RelativeHumidity_IsbL-0050_LatLon0.15_PT228H.grib2 2026-04-11 17:01 403K
20260411T12Z_MSC_GDPS_RelativeHumidity_IsbL-0100_LatLon0.15_PT228H.grib2 2026-04-11 17:01 470K
20260411T12Z_MSC_GDPS_RelativeHumidity_IsbL-0150_LatLon0.15_PT228H.grib2 2026-04-11 17:01 651K
20260411T12Z_MSC_GDPS_RelativeHumidity_IsbL-0175_LatLon0.15_PT228H.grib2 2026-04-11 17:01 784K
20260411T12Z_MSC_GDPS_RelativeHumidity_IsbL-0200_LatLon0.15_PT228H.grib2 2026-04-11 17:01 702K
20260411T12Z_MSC_GDPS_RelativeHumidity_IsbL-0225_LatLon0.15_PT228H.grib2 2026-04-11 17:01 795K
20260411T12Z_MSC_GDPS_RelativeHumidity_IsbL-0250_LatLon0.15_PT228H.grib2 2026-04-11 17:01 876K
20260411T12Z_MSC_GDPS_RelativeHumidity_IsbL-0275_LatLon0.15_PT228H.grib2 2026-04-11 17:01 896K
20260411T12Z_MSC_GDPS_RelativeHumidity_IsbL-0300_LatLon0.15_PT228H.grib2 2026-04-11 17:01 940K
20260411T12Z_MSC_GDPS_RelativeHumidity_IsbL-0350_LatLon0.15_PT228H.grib2 2026-04-11 17:01 959K
20260411T12Z_MSC_GDPS_RelativeHumidity_IsbL-0400_LatLon0.15_PT228H.grib2 2026-04-11 17:01 1.0M
20260411T12Z_MSC_GDPS_RelativeHumidity_IsbL-0450_LatLon0.15_PT228H.grib2 2026-04-11 17:01 1.0M
20260411T12Z_MSC_GDPS_RelativeHumidity_IsbL-0500_LatLon0.15_PT228H.grib2 2026-04-11 17:01 1.0M
20260411T12Z_MSC_GDPS_RelativeHumidity_IsbL-0550_LatLon0.15_PT228H.grib2 2026-04-11 17:01 1.0M
20260411T12Z_MSC_GDPS_RelativeHumidity_IsbL-0600_LatLon0.15_PT228H.grib2 2026-04-11 17:01 1.1M
20260411T12Z_MSC_GDPS_RelativeHumidity_IsbL-0650_LatLon0.15_PT228H.grib2 2026-04-11 17:01 1.1M
20260411T12Z_MSC_GDPS_RelativeHumidity_IsbL-0700_LatLon0.15_PT228H.grib2 2026-04-11 17:01 1.1M
20260411T12Z_MSC_GDPS_RelativeHumidity_IsbL-0750_LatLon0.15_PT228H.grib2 2026-04-11 17:01 1.1M
20260411T12Z_MSC_GDPS_RelativeHumidity_IsbL-0800_LatLon0.15_PT228H.grib2 2026-04-11 17:01 1.2M
20260411T12Z_MSC_GDPS_RelativeHumidity_IsbL-0850_LatLon0.15_PT228H.grib2 2026-04-11 17:01 1.2M
20260411T12Z_MSC_GDPS_RelativeHumidity_IsbL-0875_LatLon0.15_PT228H.grib2 2026-04-11 17:01 1.2M
20260411T12Z_MSC_GDPS_RelativeHumidity_IsbL-0900_LatLon0.15_PT228H.grib2 2026-04-11 17:01 1.2M
20260411T12Z_MSC_GDPS_RelativeHumidity_IsbL-0925_LatLon0.15_PT228H.grib2 2026-04-11 17:01 1.2M
20260411T12Z_MSC_GDPS_RelativeHumidity_IsbL-0950_LatLon0.15_PT228H.grib2 2026-04-11 17:01 1.2M
20260411T12Z_MSC_GDPS_RelativeHumidity_IsbL-0970_LatLon0.15_PT228H.grib2 2026-04-11 17:01 1.2M
20260411T12Z_MSC_GDPS_RelativeHumidity_IsbL-0985_LatLon0.15_PT228H.grib2 2026-04-11 17:01 1.1M
20260411T12Z_MSC_GDPS_RelativeHumidity_IsbL-1000_LatLon0.15_PT228H.grib2 2026-04-11 17:01 1.1M
20260411T12Z_MSC_GDPS_RelativeHumidity_IsbL-1015_LatLon0.15_PT228H.grib2 2026-04-11 17:01 1.0M
20260411T12Z_MSC_GDPS_RelativeVorticity_IsbL-0200_LatLon0.15_PT228H.grib2 2026-04-11 17:01 1.5M
20260411T12Z_MSC_GDPS_RelativeVorticity_IsbL-0250_LatLon0.15_PT228H.grib2 2026-04-11 17:01 1.6M
20260411T12Z_MSC_GDPS_RelativeVorticity_IsbL-0500_LatLon0.15_PT228H.grib2 2026-04-11 17:01 1.4M
20260411T12Z_MSC_GDPS_RelativeVorticity_IsbL-0700_LatLon0.15_PT228H.grib2 2026-04-11 17:01 1.6M
20260411T12Z_MSC_GDPS_RelativeVorticity_IsbL-0850_LatLon0.15_PT228H.grib2 2026-04-11 17:01 1.6M
20260411T12Z_MSC_GDPS_Runoff-Accum_Sfc_LatLon0.15_PT228H.grib2 2026-04-11 17:01 112K
20260411T12Z_MSC_GDPS_SensibleHeatNetFlux_Sfc_LatLon0.15_PT228H.grib2 2026-04-11 17:01 592K
20260411T12Z_MSC_GDPS_ShowalterIndex_IsbL-0500_LatLon0.15_PT228H.grib2 2026-04-11 17:01 6.2M
20260411T12Z_MSC_GDPS_Snow-Accum12h_Sfc_LatLon0.15_PT228H.grib2 2026-04-11 17:01 1.4M
20260411T12Z_MSC_GDPS_Snow-Accum24h_Sfc_LatLon0.15_PT228H.grib2 2026-04-11 17:01 1.6M
20260411T12Z_MSC_GDPS_Snow-Accum6h_Sfc_LatLon0.15_PT228H.grib2 2026-04-11 17:01 1.3M
20260411T12Z_MSC_GDPS_Snow-Accum_Sfc_LatLon0.15_PT228H.grib2 2026-04-11 17:01 2.0M
20260411T12Z_MSC_GDPS_SnowDensity_Sfc_LatLon0.15_PT228H.grib2 2026-04-11 17:01 270K
20260411T12Z_MSC_GDPS_SnowDepth_Sfc_LatLon0.15_PT228H.grib2 2026-04-11 17:01 1.8M
20260411T12Z_MSC_GDPS_SoilTemp_DBS-0to10cm_LatLon0.15_PT228H.grib2 2026-04-11 17:01 514K
20260411T12Z_MSC_GDPS_SoilTemp_Sfc_LatLon0.15_PT228H.grib2 2026-04-11 17:01 575K
20260411T12Z_MSC_GDPS_SoilVolumetricIceContent_Sfc_LatLon0.15_PT228H.grib2 2026-04-11 17:01 222K
20260411T12Z_MSC_GDPS_SoilVolumetricWaterContent_DBS-0to10cm_LatLon0.15_PT228H.grib2 2026-04-11 17:01 552K
20260411T12Z_MSC_GDPS_SoilVolumetricWaterContent_DBS-0to1cm_LatLon0.15_PT228H.grib2 2026-04-11 17:01 649K
20260411T12Z_MSC_GDPS_SpecificHumidity_AGL-120m_LatLon0.15_PT228H.grib2 2026-04-11 17:01 1.1M
20260411T12Z_MSC_GDPS_SpecificHumidity_AGL-2m_LatLon0.15_PT228H.grib2 2026-04-11 17:01 1.2M
20260411T12Z_MSC_GDPS_SpecificHumidity_AGL-40m_LatLon0.15_PT228H.grib2 2026-04-11 17:01 1.1M
20260411T12Z_MSC_GDPS_SpecificHumidity_AGL-80m_LatLon0.15_PT228H.grib2 2026-04-11 17:01 1.1M
20260411T12Z_MSC_GDPS_SpecificHumidity_IsbL-0001_LatLon0.15_PT228H.grib2 2026-04-11 17:01 1.0M
20260411T12Z_MSC_GDPS_SpecificHumidity_IsbL-0005_LatLon0.15_PT228H.grib2 2026-04-11 17:01 1.2M
20260411T12Z_MSC_GDPS_SpecificHumidity_IsbL-0010_LatLon0.15_PT228H.grib2 2026-04-11 17:01 1.1M
20260411T12Z_MSC_GDPS_SpecificHumidity_IsbL-0020_LatLon0.15_PT228H.grib2 2026-04-11 17:01 1.4M
20260411T12Z_MSC_GDPS_SpecificHumidity_IsbL-0030_LatLon0.15_PT228H.grib2 2026-04-11 17:01 1.4M
20260411T12Z_MSC_GDPS_SpecificHumidity_IsbL-0050_LatLon0.15_PT228H.grib2 2026-04-11 17:01 1.2M
20260411T12Z_MSC_GDPS_SpecificHumidity_IsbL-0100_LatLon0.15_PT228H.grib2 2026-04-11 17:01 1.2M
20260411T12Z_MSC_GDPS_SpecificHumidity_IsbL-0150_LatLon0.15_PT228H.grib2 2026-04-11 17:01 1.3M
20260411T12Z_MSC_GDPS_SpecificHumidity_IsbL-0175_LatLon0.15_PT228H.grib2 2026-04-11 17:01 1.2M
20260411T12Z_MSC_GDPS_SpecificHumidity_IsbL-0200_LatLon0.15_PT228H.grib2 2026-04-11 17:01 1.3M
20260411T12Z_MSC_GDPS_SpecificHumidity_IsbL-0225_LatLon0.15_PT228H.grib2 2026-04-11 17:01 1.3M
20260411T12Z_MSC_GDPS_SpecificHumidity_IsbL-0250_LatLon0.15_PT228H.grib2 2026-04-11 17:01 1.4M
20260411T12Z_MSC_GDPS_SpecificHumidity_IsbL-0275_LatLon0.15_PT228H.grib2 2026-04-11 17:01 1.3M
20260411T12Z_MSC_GDPS_SpecificHumidity_IsbL-0300_LatLon0.15_PT228H.grib2 2026-04-11 17:01 1.5M
20260411T12Z_MSC_GDPS_SpecificHumidity_IsbL-0350_LatLon0.15_PT228H.grib2 2026-04-11 17:01 1.5M
20260411T12Z_MSC_GDPS_SpecificHumidity_IsbL-0400_LatLon0.15_PT228H.grib2 2026-04-11 17:01 1.5M
20260411T12Z_MSC_GDPS_SpecificHumidity_IsbL-0450_LatLon0.15_PT228H.grib2 2026-04-11 17:01 1.6M
20260411T12Z_MSC_GDPS_SpecificHumidity_IsbL-0500_LatLon0.15_PT228H.grib2 2026-04-11 17:01 1.4M
20260411T12Z_MSC_GDPS_SpecificHumidity_IsbL-0550_LatLon0.15_PT228H.grib2 2026-04-11 17:01 1.6M
20260411T12Z_MSC_GDPS_SpecificHumidity_IsbL-0600_LatLon0.15_PT228H.grib2 2026-04-11 17:01 1.8M
20260411T12Z_MSC_GDPS_SpecificHumidity_IsbL-0650_LatLon0.15_PT228H.grib2 2026-04-11 17:01 1.5M
20260411T12Z_MSC_GDPS_SpecificHumidity_IsbL-0700_LatLon0.15_PT228H.grib2 2026-04-11 17:01 1.6M
20260411T12Z_MSC_GDPS_SpecificHumidity_IsbL-0750_LatLon0.15_PT228H.grib2 2026-04-11 17:01 1.7M
20260411T12Z_MSC_GDPS_SpecificHumidity_IsbL-0800_LatLon0.15_PT228H.grib2 2026-04-11 17:01 1.8M
20260411T12Z_MSC_GDPS_SpecificHumidity_IsbL-0850_LatLon0.15_PT228H.grib2 2026-04-11 17:01 1.9M
20260411T12Z_MSC_GDPS_SpecificHumidity_IsbL-0875_LatLon0.15_PT228H.grib2 2026-04-11 17:01 1.9M
20260411T12Z_MSC_GDPS_SpecificHumidity_IsbL-0900_LatLon0.15_PT228H.grib2 2026-04-11 17:01 1.9M
20260411T12Z_MSC_GDPS_SpecificHumidity_IsbL-0925_LatLon0.15_PT228H.grib2 2026-04-11 17:01 1.9M
20260411T12Z_MSC_GDPS_SpecificHumidity_IsbL-0950_LatLon0.15_PT228H.grib2 2026-04-11 17:01 1.9M
20260411T12Z_MSC_GDPS_SpecificHumidity_IsbL-0970_LatLon0.15_PT228H.grib2 2026-04-11 17:01 1.5M
20260411T12Z_MSC_GDPS_SpecificHumidity_IsbL-0985_LatLon0.15_PT228H.grib2 2026-04-11 17:01 1.5M
20260411T12Z_MSC_GDPS_SpecificHumidity_IsbL-1000_LatLon0.15_PT228H.grib2 2026-04-11 17:01 1.5M
20260411T12Z_MSC_GDPS_SpecificHumidity_IsbL-1015_LatLon0.15_PT228H.grib2 2026-04-11 17:01 1.4M
20260411T12Z_MSC_GDPS_SpecificHumidity_Sfc_LatLon0.15_PT228H.grib2 2026-04-11 17:01 623K
20260411T12Z_MSC_GDPS_Thickness_IsbL-0850to0700_LatLon0.15_PT228H.grib2 2026-04-11 17:01 466K
20260411T12Z_MSC_GDPS_Thickness_IsbL-1000to0500_LatLon0.15_PT228H.grib2 2026-04-11 17:01 378K
20260411T12Z_MSC_GDPS_Thickness_IsbL-1000to0850_LatLon0.15_PT228H.grib2 2026-04-11 17:01 490K
20260411T12Z_MSC_GDPS_TotalCloudCover_Sfc_LatLon0.15_PT228H.grib2 2026-04-11 17:01 812K
20260411T12Z_MSC_GDPS_TotalTotalsIndex_Sfc_LatLon0.15_PT228H.grib2 2026-04-11 17:01 6.2M
20260411T12Z_MSC_GDPS_UVIndex-ClearSky_Sfc_LatLon0.15_PT228H.grib2 2026-04-11 17:07 1.0M
20260411T12Z_MSC_GDPS_UVIndex_Sfc_LatLon0.15_PT228H.grib2 2026-04-11 17:07 1.4M
20260411T12Z_MSC_GDPS_UpwardLongwaveRadiationFlux_NTAtm_LatLon0.15_PT228H.grib2 2026-04-11 17:01 1.0M
20260411T12Z_MSC_GDPS_VerticalVelocity_IsbL-0200_LatLon0.15_PT228H.grib2 2026-04-11 17:01 965K
20260411T12Z_MSC_GDPS_VerticalVelocity_IsbL-0250_LatLon0.15_PT228H.grib2 2026-04-11 17:01 854K
20260411T12Z_MSC_GDPS_VerticalVelocity_IsbL-0500_LatLon0.15_PT228H.grib2 2026-04-11 17:01 1.1M
20260411T12Z_MSC_GDPS_VerticalVelocity_IsbL-0600_LatLon0.15_PT228H.grib2 2026-04-11 17:01 1.1M
20260411T12Z_MSC_GDPS_VerticalVelocity_IsbL-0700_LatLon0.15_PT228H.grib2 2026-04-11 17:01 1.1M
20260411T12Z_MSC_GDPS_VerticalVelocity_IsbL-0850_LatLon0.15_PT228H.grib2 2026-04-11 17:01 1.3M
20260411T12Z_MSC_GDPS_WindChill_Sfc_LatLon0.15_PT228H.grib2 2026-04-11 17:01 5.3M
20260411T12Z_MSC_GDPS_WindDir_AGL-10m_LatLon0.15_PT228H.grib2 2026-04-11 17:01 1.3M
20260411T12Z_MSC_GDPS_WindDir_AGL-120m_LatLon0.15_PT228H.grib2 2026-04-11 17:01 1.4M
20260411T12Z_MSC_GDPS_WindDir_AGL-40m_LatLon0.15_PT228H.grib2 2026-04-11 17:01 1.4M
20260411T12Z_MSC_GDPS_WindDir_AGL-80m_LatLon0.15_PT228H.grib2 2026-04-11 17:01 1.4M
20260411T12Z_MSC_GDPS_WindDir_IsbL-0001_LatLon0.15_PT228H.grib2 2026-04-11 17:01 657K
20260411T12Z_MSC_GDPS_WindDir_IsbL-0005_LatLon0.15_PT228H.grib2 2026-04-11 17:01 786K
20260411T12Z_MSC_GDPS_WindDir_IsbL-0010_LatLon0.15_PT228H.grib2 2026-04-11 17:01 869K
20260411T12Z_MSC_GDPS_WindDir_IsbL-0020_LatLon0.15_PT228H.grib2 2026-04-11 17:01 934K
20260411T12Z_MSC_GDPS_WindDir_IsbL-0030_LatLon0.15_PT228H.grib2 2026-04-11 17:01 903K
20260411T12Z_MSC_GDPS_WindDir_IsbL-0050_LatLon0.15_PT228H.grib2 2026-04-11 17:01 934K
20260411T12Z_MSC_GDPS_WindDir_IsbL-0100_LatLon0.15_PT228H.grib2 2026-04-11 17:01 1.0M
20260411T12Z_MSC_GDPS_WindDir_IsbL-0150_LatLon0.15_PT228H.grib2 2026-04-11 17:01 1.0M
20260411T12Z_MSC_GDPS_WindDir_IsbL-0175_LatLon0.15_PT228H.grib2 2026-04-11 17:01 1.0M
20260411T12Z_MSC_GDPS_WindDir_IsbL-0200_LatLon0.15_PT228H.grib2 2026-04-11 17:01 1.1M
20260411T12Z_MSC_GDPS_WindDir_IsbL-0225_LatLon0.15_PT228H.grib2 2026-04-11 17:01 1.1M
20260411T12Z_MSC_GDPS_WindDir_IsbL-0250_LatLon0.15_PT228H.grib2 2026-04-11 17:01 1.1M
20260411T12Z_MSC_GDPS_WindDir_IsbL-0275_LatLon0.15_PT228H.grib2 2026-04-11 17:01 1.2M
20260411T12Z_MSC_GDPS_WindDir_IsbL-0300_LatLon0.15_PT228H.grib2 2026-04-11 17:01 1.2M
20260411T12Z_MSC_GDPS_WindDir_IsbL-0350_LatLon0.15_PT228H.grib2 2026-04-11 17:01 1.2M
20260411T12Z_MSC_GDPS_WindDir_IsbL-0400_LatLon0.15_PT228H.grib2 2026-04-11 17:01 1.3M
20260411T12Z_MSC_GDPS_WindDir_IsbL-0450_LatLon0.15_PT228H.grib2 2026-04-11 17:01 1.3M
20260411T12Z_MSC_GDPS_WindDir_IsbL-0500_LatLon0.15_PT228H.grib2 2026-04-11 17:01 1.3M
20260411T12Z_MSC_GDPS_WindDir_IsbL-0550_LatLon0.15_PT228H.grib2 2026-04-11 17:01 1.4M
20260411T12Z_MSC_GDPS_WindDir_IsbL-0600_LatLon0.15_PT228H.grib2 2026-04-11 17:01 1.5M
20260411T12Z_MSC_GDPS_WindDir_IsbL-0650_LatLon0.15_PT228H.grib2 2026-04-11 17:01 1.5M
20260411T12Z_MSC_GDPS_WindDir_IsbL-0700_LatLon0.15_PT228H.grib2 2026-04-11 17:01 1.6M
20260411T12Z_MSC_GDPS_WindDir_IsbL-0750_LatLon0.15_PT228H.grib2 2026-04-11 17:01 1.7M
20260411T12Z_MSC_GDPS_WindDir_IsbL-0800_LatLon0.15_PT228H.grib2 2026-04-11 17:01 1.8M
20260411T12Z_MSC_GDPS_WindDir_IsbL-0850_LatLon0.15_PT228H.grib2 2026-04-11 17:01 1.9M
20260411T12Z_MSC_GDPS_WindDir_IsbL-0875_LatLon0.15_PT228H.grib2 2026-04-11 17:01 2.0M
20260411T12Z_MSC_GDPS_WindDir_IsbL-0900_LatLon0.15_PT228H.grib2 2026-04-11 17:01 2.0M
20260411T12Z_MSC_GDPS_WindDir_IsbL-0925_LatLon0.15_PT228H.grib2 2026-04-11 17:01 2.0M
20260411T12Z_MSC_GDPS_WindDir_IsbL-0950_LatLon0.15_PT228H.grib2 2026-04-11 17:01 2.0M
20260411T12Z_MSC_GDPS_WindDir_IsbL-0970_LatLon0.15_PT228H.grib2 2026-04-11 17:01 2.0M
20260411T12Z_MSC_GDPS_WindDir_IsbL-0985_LatLon0.15_PT228H.grib2 2026-04-11 17:01 2.0M
20260411T12Z_MSC_GDPS_WindDir_IsbL-1000_LatLon0.15_PT228H.grib2 2026-04-11 17:01 2.1M
20260411T12Z_MSC_GDPS_WindDir_IsbL-1015_LatLon0.15_PT228H.grib2 2026-04-11 17:01 2.0M
20260411T12Z_MSC_GDPS_WindGust-Max_AGL-10m_LatLon0.15_PT228H.grib2 2026-04-11 17:01 2.2M
20260411T12Z_MSC_GDPS_WindGust-Min_AGL-10m_LatLon0.15_PT228H.grib2 2026-04-11 17:01 2.2M
20260411T12Z_MSC_GDPS_WindGust_AGL-10m_LatLon0.15_PT228H.grib2 2026-04-11 17:01 2.2M
20260411T12Z_MSC_GDPS_WindSpeed_AGL-10m_LatLon0.15_PT228H.grib2 2026-04-11 17:01 1.1M
20260411T12Z_MSC_GDPS_WindSpeed_AGL-120m_LatLon0.15_PT228H.grib2 2026-04-11 17:01 1.2M
20260411T12Z_MSC_GDPS_WindSpeed_AGL-40m_LatLon0.15_PT228H.grib2 2026-04-11 17:01 1.2M
20260411T12Z_MSC_GDPS_WindSpeed_AGL-80m_LatLon0.15_PT228H.grib2 2026-04-11 17:01 1.2M
20260411T12Z_MSC_GDPS_WindSpeed_IsbL-0001_LatLon0.15_PT228H.grib2 2026-04-11 17:01 635K
20260411T12Z_MSC_GDPS_WindSpeed_IsbL-0005_LatLon0.15_PT228H.grib2 2026-04-11 17:01 603K
20260411T12Z_MSC_GDPS_WindSpeed_IsbL-0010_LatLon0.15_PT228H.grib2 2026-04-11 17:01 623K
20260411T12Z_MSC_GDPS_WindSpeed_IsbL-0020_LatLon0.15_PT228H.grib2 2026-04-11 17:01 855K
20260411T12Z_MSC_GDPS_WindSpeed_IsbL-0030_LatLon0.15_PT228H.grib2 2026-04-11 17:01 851K
20260411T12Z_MSC_GDPS_WindSpeed_IsbL-0050_LatLon0.15_PT228H.grib2 2026-04-11 17:01 1.0M
20260411T12Z_MSC_GDPS_WindSpeed_IsbL-0100_LatLon0.15_PT228H.grib2 2026-04-11 17:01 1.1M
20260411T12Z_MSC_GDPS_WindSpeed_IsbL-0150_LatLon0.15_PT228H.grib2 2026-04-11 17:01 1.0M
20260411T12Z_MSC_GDPS_WindSpeed_IsbL-0175_LatLon0.15_PT228H.grib2 2026-04-11 17:01 1.0M
20260411T12Z_MSC_GDPS_WindSpeed_IsbL-0200_LatLon0.15_PT228H.grib2 2026-04-11 17:01 1.1M
20260411T12Z_MSC_GDPS_WindSpeed_IsbL-0225_LatLon0.15_PT228H.grib2 2026-04-11 17:01 1.1M
20260411T12Z_MSC_GDPS_WindSpeed_IsbL-0250_LatLon0.15_PT228H.grib2 2026-04-11 17:01 1.1M
20260411T12Z_MSC_GDPS_WindSpeed_IsbL-0275_LatLon0.15_PT228H.grib2 2026-04-11 17:01 1.1M
20260411T12Z_MSC_GDPS_WindSpeed_IsbL-0300_LatLon0.15_PT228H.grib2 2026-04-11 17:01 1.1M
20260411T12Z_MSC_GDPS_WindSpeed_IsbL-0350_LatLon0.15_PT228H.grib2 2026-04-11 17:01 1.1M
20260411T12Z_MSC_GDPS_WindSpeed_IsbL-0400_LatLon0.15_PT228H.grib2 2026-04-11 17:01 1.1M
20260411T12Z_MSC_GDPS_WindSpeed_IsbL-0450_LatLon0.15_PT228H.grib2 2026-04-11 17:01 1.1M
20260411T12Z_MSC_GDPS_WindSpeed_IsbL-0500_LatLon0.15_PT228H.grib2 2026-04-11 17:01 1.1M
20260411T12Z_MSC_GDPS_WindSpeed_IsbL-0550_LatLon0.15_PT228H.grib2 2026-04-11 17:01 1.1M
20260411T12Z_MSC_GDPS_WindSpeed_IsbL-0600_LatLon0.15_PT228H.grib2 2026-04-11 17:01 1.1M
20260411T12Z_MSC_GDPS_WindSpeed_IsbL-0650_LatLon0.15_PT228H.grib2 2026-04-11 17:01 1.1M
20260411T12Z_MSC_GDPS_WindSpeed_IsbL-0700_LatLon0.15_PT228H.grib2 2026-04-11 17:01 1.5M
20260411T12Z_MSC_GDPS_WindSpeed_IsbL-0750_LatLon0.15_PT228H.grib2 2026-04-11 17:01 1.5M
20260411T12Z_MSC_GDPS_WindSpeed_IsbL-0800_LatLon0.15_PT228H.grib2 2026-04-11 17:01 1.6M
20260411T12Z_MSC_GDPS_WindSpeed_IsbL-0850_LatLon0.15_PT228H.grib2 2026-04-11 17:01 1.7M
20260411T12Z_MSC_GDPS_WindSpeed_IsbL-0875_LatLon0.15_PT228H.grib2 2026-04-11 17:01 1.8M
20260411T12Z_MSC_GDPS_WindSpeed_IsbL-0900_LatLon0.15_PT228H.grib2 2026-04-11 17:01 1.8M
20260411T12Z_MSC_GDPS_WindSpeed_IsbL-0925_LatLon0.15_PT228H.grib2 2026-04-11 17:01 1.9M
20260411T12Z_MSC_GDPS_WindSpeed_IsbL-0950_LatLon0.15_PT228H.grib2 2026-04-11 17:01 1.9M
20260411T12Z_MSC_GDPS_WindSpeed_IsbL-0970_LatLon0.15_PT228H.grib2 2026-04-11 17:01 1.9M
20260411T12Z_MSC_GDPS_WindSpeed_IsbL-0985_LatLon0.15_PT228H.grib2 2026-04-11 17:01 1.8M
20260411T12Z_MSC_GDPS_WindSpeed_IsbL-1000_LatLon0.15_PT228H.grib2 2026-04-11 17:01 1.8M
20260411T12Z_MSC_GDPS_WindSpeed_IsbL-1015_LatLon0.15_PT228H.grib2 2026-04-11 17:01 1.8M
20260411T12Z_MSC_GDPS_WindU_AGL-10m_LatLon0.15_PT228H.grib2 2026-04-11 17:01 1.3M
20260411T12Z_MSC_GDPS_WindU_AGL-120m_LatLon0.15_PT228H.grib2 2026-04-11 17:01 1.0M
20260411T12Z_MSC_GDPS_WindU_AGL-40m_LatLon0.15_PT228H.grib2 2026-04-11 17:01 965K
20260411T12Z_MSC_GDPS_WindU_AGL-80m_LatLon0.15_PT228H.grib2 2026-04-11 17:01 972K
20260411T12Z_MSC_GDPS_WindU_IsbL-0001_LatLon0.15_PT228H.grib2 2026-04-11 17:01 637K
20260411T12Z_MSC_GDPS_WindU_IsbL-0005_LatLon0.15_PT228H.grib2 2026-04-11 17:01 683K
20260411T12Z_MSC_GDPS_WindU_IsbL-0010_LatLon0.15_PT228H.grib2 2026-04-11 17:01 694K
20260411T12Z_MSC_GDPS_WindU_IsbL-0020_LatLon0.15_PT228H.grib2 2026-04-11 17:01 655K
20260411T12Z_MSC_GDPS_WindU_IsbL-0030_LatLon0.15_PT228H.grib2 2026-04-11 17:01 732K
20260411T12Z_MSC_GDPS_WindU_IsbL-0050_LatLon0.15_PT228H.grib2 2026-04-11 17:01 697K
20260411T12Z_MSC_GDPS_WindU_IsbL-0100_LatLon0.15_PT228H.grib2 2026-04-11 17:01 854K
20260411T12Z_MSC_GDPS_WindU_IsbL-0150_LatLon0.15_PT228H.grib2 2026-04-11 17:01 1.0M
20260411T12Z_MSC_GDPS_WindU_IsbL-0175_LatLon0.15_PT228H.grib2 2026-04-11 17:01 1.0M
20260411T12Z_MSC_GDPS_WindU_IsbL-0200_LatLon0.15_PT228H.grib2 2026-04-11 17:01 1.0M
20260411T12Z_MSC_GDPS_WindU_IsbL-0225_LatLon0.15_PT228H.grib2 2026-04-11 17:01 852K
20260411T12Z_MSC_GDPS_WindU_IsbL-0250_LatLon0.15_PT228H.grib2 2026-04-11 17:01 850K
20260411T12Z_MSC_GDPS_WindU_IsbL-0275_LatLon0.15_PT228H.grib2 2026-04-11 17:01 876K
20260411T12Z_MSC_GDPS_WindU_IsbL-0300_LatLon0.15_PT228H.grib2 2026-04-11 17:01 866K
20260411T12Z_MSC_GDPS_WindU_IsbL-0350_LatLon0.15_PT228H.grib2 2026-04-11 17:01 877K
20260411T12Z_MSC_GDPS_WindU_IsbL-0400_LatLon0.15_PT228H.grib2 2026-04-11 17:01 880K
20260411T12Z_MSC_GDPS_WindU_IsbL-0450_LatLon0.15_PT228H.grib2 2026-04-11 17:01 1.1M
20260411T12Z_MSC_GDPS_WindU_IsbL-0500_LatLon0.15_PT228H.grib2 2026-04-11 17:01 1.1M
20260411T12Z_MSC_GDPS_WindU_IsbL-0550_LatLon0.15_PT228H.grib2 2026-04-11 17:01 1.1M
20260411T12Z_MSC_GDPS_WindU_IsbL-0600_LatLon0.15_PT228H.grib2 2026-04-11 17:01 1.1M
20260411T12Z_MSC_GDPS_WindU_IsbL-0650_LatLon0.15_PT228H.grib2 2026-04-11 17:01 1.2M
20260411T12Z_MSC_GDPS_WindU_IsbL-0700_LatLon0.15_PT228H.grib2 2026-04-11 17:01 1.2M
20260411T12Z_MSC_GDPS_WindU_IsbL-0750_LatLon0.15_PT228H.grib2 2026-04-11 17:01 1.3M
20260411T12Z_MSC_GDPS_WindU_IsbL-0800_LatLon0.15_PT228H.grib2 2026-04-11 17:01 1.3M
20260411T12Z_MSC_GDPS_WindU_IsbL-0850_LatLon0.15_PT228H.grib2 2026-04-11 17:01 1.4M
20260411T12Z_MSC_GDPS_WindU_IsbL-0875_LatLon0.15_PT228H.grib2 2026-04-11 17:01 1.4M
20260411T12Z_MSC_GDPS_WindU_IsbL-0900_LatLon0.15_PT228H.grib2 2026-04-11 17:01 1.4M
20260411T12Z_MSC_GDPS_WindU_IsbL-0925_LatLon0.15_PT228H.grib2 2026-04-11 17:01 1.4M
20260411T12Z_MSC_GDPS_WindU_IsbL-0950_LatLon0.15_PT228H.grib2 2026-04-11 17:01 1.4M
20260411T12Z_MSC_GDPS_WindU_IsbL-0970_LatLon0.15_PT228H.grib2 2026-04-11 17:01 1.4M
20260411T12Z_MSC_GDPS_WindU_IsbL-0985_LatLon0.15_PT228H.grib2 2026-04-11 17:01 1.4M
20260411T12Z_MSC_GDPS_WindU_IsbL-1000_LatLon0.15_PT228H.grib2 2026-04-11 17:01 1.4M
20260411T12Z_MSC_GDPS_WindU_IsbL-1015_LatLon0.15_PT228H.grib2 2026-04-11 17:01 1.3M
20260411T12Z_MSC_GDPS_WindV_AGL-10m_LatLon0.15_PT228H.grib2 2026-04-11 17:01 1.6M
20260411T12Z_MSC_GDPS_WindV_AGL-120m_LatLon0.15_PT228H.grib2 2026-04-11 17:01 1.0M
20260411T12Z_MSC_GDPS_WindV_AGL-40m_LatLon0.15_PT228H.grib2 2026-04-11 17:01 969K
20260411T12Z_MSC_GDPS_WindV_AGL-80m_LatLon0.15_PT228H.grib2 2026-04-11 17:01 1.0M
20260411T12Z_MSC_GDPS_WindV_IsbL-0001_LatLon0.15_PT228H.grib2 2026-04-11 17:01 693K
20260411T12Z_MSC_GDPS_WindV_IsbL-0005_LatLon0.15_PT228H.grib2 2026-04-11 17:01 843K
20260411T12Z_MSC_GDPS_WindV_IsbL-0010_LatLon0.15_PT228H.grib2 2026-04-11 17:01 799K
20260411T12Z_MSC_GDPS_WindV_IsbL-0020_LatLon0.15_PT228H.grib2 2026-04-11 17:01 853K
20260411T12Z_MSC_GDPS_WindV_IsbL-0030_LatLon0.15_PT228H.grib2 2026-04-11 17:01 853K
20260411T12Z_MSC_GDPS_WindV_IsbL-0050_LatLon0.15_PT228H.grib2 2026-04-11 17:01 1.0M
20260411T12Z_MSC_GDPS_WindV_IsbL-0100_LatLon0.15_PT228H.grib2 2026-04-11 17:01 846K
20260411T12Z_MSC_GDPS_WindV_IsbL-0150_LatLon0.15_PT228H.grib2 2026-04-11 17:01 1.0M
20260411T12Z_MSC_GDPS_WindV_IsbL-0175_LatLon0.15_PT228H.grib2 2026-04-11 17:01 1.0M
20260411T12Z_MSC_GDPS_WindV_IsbL-0200_LatLon0.15_PT228H.grib2 2026-04-11 17:01 1.0M
20260411T12Z_MSC_GDPS_WindV_IsbL-0225_LatLon0.15_PT228H.grib2 2026-04-11 17:01 847K
20260411T12Z_MSC_GDPS_WindV_IsbL-0250_LatLon0.15_PT228H.grib2 2026-04-11 17:01 845K
20260411T12Z_MSC_GDPS_WindV_IsbL-0275_LatLon0.15_PT228H.grib2 2026-04-11 17:01 871K
20260411T12Z_MSC_GDPS_WindV_IsbL-0300_LatLon0.15_PT228H.grib2 2026-04-11 17:01 921K
20260411T12Z_MSC_GDPS_WindV_IsbL-0350_LatLon0.15_PT228H.grib2 2026-04-11 17:01 931K
20260411T12Z_MSC_GDPS_WindV_IsbL-0400_LatLon0.15_PT228H.grib2 2026-04-11 17:01 874K
20260411T12Z_MSC_GDPS_WindV_IsbL-0450_LatLon0.15_PT228H.grib2 2026-04-11 17:01 878K
20260411T12Z_MSC_GDPS_WindV_IsbL-0500_LatLon0.15_PT228H.grib2 2026-04-11 17:01 1.1M
20260411T12Z_MSC_GDPS_WindV_IsbL-0550_LatLon0.15_PT228H.grib2 2026-04-11 17:01 1.1M
20260411T12Z_MSC_GDPS_WindV_IsbL-0600_LatLon0.15_PT228H.grib2 2026-04-11 17:01 1.1M
20260411T12Z_MSC_GDPS_WindV_IsbL-0650_LatLon0.15_PT228H.grib2 2026-04-11 17:01 1.2M
20260411T12Z_MSC_GDPS_WindV_IsbL-0700_LatLon0.15_PT228H.grib2 2026-04-11 17:01 1.2M
20260411T12Z_MSC_GDPS_WindV_IsbL-0750_LatLon0.15_PT228H.grib2 2026-04-11 17:01 1.2M
20260411T12Z_MSC_GDPS_WindV_IsbL-0800_LatLon0.15_PT228H.grib2 2026-04-11 17:01 1.3M
20260411T12Z_MSC_GDPS_WindV_IsbL-0850_LatLon0.15_PT228H.grib2 2026-04-11 17:01 1.4M
20260411T12Z_MSC_GDPS_WindV_IsbL-0875_LatLon0.15_PT228H.grib2 2026-04-11 17:01 1.4M
20260411T12Z_MSC_GDPS_WindV_IsbL-0900_LatLon0.15_PT228H.grib2 2026-04-11 17:01 1.4M
20260411T12Z_MSC_GDPS_WindV_IsbL-0925_LatLon0.15_PT228H.grib2 2026-04-11 17:01 1.4M
20260411T12Z_MSC_GDPS_WindV_IsbL-0950_LatLon0.15_PT228H.grib2 2026-04-11 17:01 1.4M
20260411T12Z_MSC_GDPS_WindV_IsbL-0970_LatLon0.15_PT228H.grib2 2026-04-11 17:01 1.4M
20260411T12Z_MSC_GDPS_WindV_IsbL-0985_LatLon0.15_PT228H.grib2 2026-04-11 17:01 1.7M
20260411T12Z_MSC_GDPS_WindV_IsbL-1000_LatLon0.15_PT228H.grib2 2026-04-11 17:01 1.7M
20260411T12Z_MSC_GDPS_WindV_IsbL-1015_LatLon0.15_PT228H.grib2 2026-04-11 17:01 1.6M